Regional Weather Roundup
Issued by NWS

Home | Current Version | Previous Version | Text Only | Print | Product List | Glossary On
Versions: 1 2 3 4 5 6 7 8 9 10 11 12 13 14 15 16 17 18 19 20 21 22 23 24 25 26 27 28 29 30 31 32 33 34 35 36 37 38 39 40 41 42 43 44 45 46 47 48 49 50
154
ASUS44 KFWD 240615
RWRTX
NORTH TEXAS HOURLY WEATHER ROUNDUP
NATIONAL WEATHER SERVICE FORT WORTH TX
100 AM CDT THU AUG 24 2017

NOTE: "FAIR" INDICATES FEW OR NO CLOUDS BELOW 12,000 FEET WITH NO
SIGNIFICANT WEATHER AND/OR OBSTRUCTIONS TO VISIBILITY.

TXZ118-119-240700-
DALLAS/FORT WORTH METROPLEX

CITY           SKY/WX    TMP DP  RH WIND       PRES   REMARKS
DFW AIRPORT    CLOUDY    82  71  69 E3        29.93F
6HR MIN TEMP:  82; 6HR MAX TEMP:  87;

DALLAS LOVE    CLOUDY    82  70  66 E10       29.94F
6HR MIN TEMP:  82; 6HR MAX TEMP:  88;

FTW MEACHAM    HVY RAIN  75  74  96 VRB3      29.96S FOG
6HR MIN TEMP:  76; 6HR MAX TEMP:  84; 6HR PCP:  0.32;

DAL-EXECUTIVE  CLOUDY    80  71  74 E5        29.94F
6HR MIN TEMP:  80; 6HR MAX TEMP:  87;

FTW-ALLIANCE   CLOUDY    78  71  79 VRB5      29.95F
6HR MIN TEMP:  78; 6HR MAX TEMP:  82;

FTW-NAS-JRB    CLOUDY    78  72  81 NE5       29.96S
FTW-SPINKS     RAIN      77  74  92 SW5       29.97S
6HR MIN TEMP:  76; 6HR MAX TEMP:  86; 6HR PCP:  0.06;

ARLINGTON      CLOUDY    79  73  82 W5        29.95F
6HR MIN TEMP:  79; 6HR MAX TEMP:  88; 6HR PCP: TRACE;

GRAND PRAIRIE  CLOUDY    80  68  67 SE3       29.97S
6HR MIN TEMP:  80; 6HR MAX TEMP:  87;

ADDISON        CLOUDY    79  71  75 E8        29.96F
6HR MIN TEMP:  79; 6HR MAX TEMP:  85;

MESQUITE         N/A     77  72  84 CALM      29.95F
6HR MIN TEMP:  77; 6HR MAX TEMP:  85;

LANCASTER      CLOUDY    77  71  79 CALM      29.96S
6HR MIN TEMP:  77; 6HR MAX TEMP:  87;

$$

TXZ091>094-102>105-117-120-121-131>134-240700-
NORTH CENTRAL TEXAS

CITY           SKY/WX    TMP DP  RH WIND       PRES   REMARKS
SHRMAN/DENISON CLOUDY    75  73  92 E3        29.98F
6HR MIN TEMP:  73; 6HR MAX TEMP:  82;

GAINESVILLE    CLOUDY    74  72  95 CALM      30.00S
6HR MIN TEMP:  73; 6HR MAX TEMP:  78;

BOWIE          CLEAR     71  71  98 CALM      29.99S
6HR MIN TEMP:  71; 6HR MAX TEMP:  74; 6HR PCP:  0.04;

BRIDGEPORT     CLEAR     74  74 100 E3        29.99S
6HR MIN TEMP:  74; 6HR MAX TEMP:  82;

DECATUR        PTCLDY    73  71  93 E3          N/A
6HR MIN TEMP:  73; 6HR MAX TEMP:  81;

DENTON         CLOUDY    78  71  79 E6        29.96F
6HR MIN TEMP:  76; 6HR MAX TEMP:  82;

MCKINNEY       CLOUDY    76  74  93 E3        29.95F
6HR MIN TEMP:  76; 6HR MAX TEMP:  82;

BONHAM         FOG       75  73  94 NE6       29.97F VSB 1
GREENVILLE     CLOUDY    79  73  83 CALM      29.96F
ROCKWALL       CLOUDY    76  72  85 S6        29.96F
6HR MIN TEMP:  76; 6HR MAX TEMP:  84;

TERRELL        CLOUDY    76  70  82 CALM      29.95F
6HR MIN TEMP:  76; 6HR MAX TEMP:  86;

WAXAHACHIE     MOCLDY    76  71  83 CALM      29.97F
6HR MIN TEMP:  76; 6HR MAX TEMP:  86;

CLEBURNE       CLOUDY    75  75 100 NE7       29.98S
GRANBURY       CLOUDY    78  71  79 E6        29.97S
6HR MIN TEMP:  78; 6HR MAX TEMP:  86;

$$

TXZ083>090-098>101-113>116-127>130-139>142-154-155-240700-
WESTERN NORTH TEXAS

CITY           SKY/WX    TMP DP  RH WIND       PRES   REMARKS
WICHITA FALLS  CLEAR     73  69  87 E5        29.99R
6HR MIN TEMP:  73; 6HR MAX TEMP:  85;

WF-KICKAPOO    CLEAR     73  69  89 CALM      30.02R
6HR MIN TEMP:  73; 6HR MAX TEMP:  85;

VERNON         MOCLDY    72  67  84 CALM      30.03R
ABILENE        CLEAR     73  70  90 E6        30.01S
6HR MIN TEMP:  72; 6HR MAX TEMP:  79; 6HR PCP: TRACE;

ABILENE-DYESS  CLOUDY    76  69  80 E6        30.00S
6HR MIN TEMP:  76; 6HR MAX TEMP:  86;

GRAHAM         CLOUDY    73  50  44 CALM      29.97F
6HR MIN TEMP:  73; 6HR MAX TEMP:  79;

BRECKENRIDGE   PTCLDY    75  69  81 NE3       29.99S
6HR MIN TEMP:  75; 6HR MAX TEMP:  87;

CISCO          CLEAR     73  70  88 E5        30.01S
EASTLAND       CLEAR     72  69  89 NE3       29.99S
6HR MIN TEMP:  72; 6HR MAX TEMP:  84;

RANGER         PTCLDY    72  69  92 NE3       29.99S FOG
6HR MIN TEMP:  71; 6HR MAX TEMP:  94;

MINERAL WELLS  CLOUDY    75  72  90 NE5       29.96S
6HR MIN TEMP:  75; 6HR MAX TEMP:  77; 6HR PCP: TRACE;

STEPHENVILLE   CLEAR     74  69  86 CALM      30.00S
6HR MIN TEMP:  74; 6HR MAX TEMP:  83;

COMANCHE       CLOUDY    74  74 100 N3        29.98S
6HR MIN TEMP:  74; 6HR MAX TEMP:  83;

BROWNWOOD      CLOUDY    75  73  94 NW3       29.99S
COLEMAN        CLOUDY    75  69  81 CALM      30.00S
6HR MIN TEMP:  75; 6HR MAX TEMP:  83;

$$

TXZ143>147-156>162-174-175-240700-
CENTRAL TEXAS

CITY           SKY/WX    TMP DP  RH WIND       PRES   REMARKS
WACO           CLOUDY    78  70  76 E3        29.93F
6HR MIN TEMP:  77; 6HR MAX TEMP:  83;

WACO-MCGREGOR  CLOUDY    78  70  76 E3        29.94F
6HR MIN TEMP:  76; 6HR MAX TEMP:  80;

HILLSBORO      CLOUDY    76  71  86 NE3       29.96R
6HR MIN TEMP:  76; 6HR MAX TEMP:  90;

CORSICANA      CLOUDY    76  73  91 CALM      29.95F
6HR MIN TEMP:  76; 6HR MAX TEMP:  92; 6HR PCP:  0.03;

MEXIA          CLOUDY    73  71  94 CALM      29.92F
6HR MIN TEMP:  72; 6HR MAX TEMP:  74; 6HR PCP:  0.02;

HEARNE         CLOUDY    74  74 100 CALM      29.92
6HR MIN TEMP:  74; 6HR MAX TEMP:  83; 6HR PCP:  0.54;

CAMERON        PTCLDY    75  73  93 CALM      29.92F
6HR MIN TEMP:  74; 6HR MAX TEMP:  77; 6HR PCP:  0.04;

TEMPLE         CLOUDY    75  72  90 S5        29.95F
6HR MIN TEMP:  73; 6HR MAX TEMP:  75; 6HR PCP:  0.44;

KILLEEN        CLOUDY    73  72  94 S3        29.95F
6HR MIN TEMP:  73; 6HR MAX TEMP:  75; 6HR PCP:  0.01;

KILLEEN-SKYLRK MOCLDY    74  71  91 CALM      29.96F
6HR MIN TEMP:  73; 6HR MAX TEMP:  75;

FORT HOOD      CLOUDY   N/A N/A N/A S3        29.93F
                                      6HR PCP: TRACE;

GATESVILLE     CLOUDY    73  72  94 CALM      29.97F
HAMILTON       PTCLDY    74  68  82 SE7       29.99S
6HR MIN TEMP:  73; 6HR MAX TEMP:  85;

$$

TXZ095>097-106>112-122>126-135>138-148>153-164>167-240700-
EAST TEXAS

CITY           SKY/WX    TMP DP  RH WIND       PRES   REMARKS
PARIS          CLOUDY    75  73  93 E8        29.98S
6HR MIN TEMP:  75; 6HR MAX TEMP:  81;

SULPHUR SPRNGS CLOUDY    76  73  89 NE3       29.97F
6HR MIN TEMP:  76; 6HR MAX TEMP:  84;

MOUNT PLEASANT CLOUDY    75  74  97 NE5       29.96S
6HR MIN TEMP:  75; 6HR MAX TEMP:  80;

GILMER         CLOUDY    73  73  99 CALM      29.95S
6HR MIN TEMP:  73; 6HR MAX TEMP:  74;

MINEOLA        PTCLDY    75  72  88 CALM      29.95F
TYLER          CLEAR     74  74 100 N3        29.94F
6HR MIN TEMP:  74; 6HR MAX TEMP:  76;

LONGVIEW       CLOUDY    77  76  96 CALM      29.93F
6HR MIN TEMP:  77; 6HR MAX TEMP:  80; 6HR PCP:  0.01;

MARSHALL         N/A     73  70  91 CALM      29.96F
6HR MIN TEMP:  73; 6HR MAX TEMP:  85;

ATHENS         CLOUDY    73  70  88 CALM      29.93F
PALESTINE      CLOUDY    74  71  90 CALM      29.95S
JACKSONVILLE   PTCLDY    73  73 100 CALM      29.96S
HENDERSON      CLOUDY    74  73  95 CALM      29.95F
6HR MIN TEMP:  74; 6HR MAX TEMP:  79; 6HR PCP:  0.03;

CENTER         PTCLDY    78  77  95 CALM      29.94F
6HR MIN TEMP:  78; 6HR MAX TEMP:  86;

NACOGDOCHES    CLOUDY    73  73 100 CALM      29.94S FOG
6HR MIN TEMP:  73; 6HR MAX TEMP:  90;

LUFKIN         CLOUDY    76  74  93 CALM      29.92F
6HR MIN TEMP:  75; 6HR MAX TEMP:  86; 6HR PCP: TRACE;

$$

SUPPLEMENTAL OBSERVATIONS (NWS FORT WORTH AREA)

CITY           SKY/WX    TMP DP  RH WIND       PRES   REMARKS
CADDO GRASSLND   N/A     75  70  83 NE2         N/A



USA.gov is the U.S. government's official web portal to all federal, state and local government web resources and services.